Regional Weather Roundup
Issued by NWS

Home | Current Version | Previous Version | Text Only | Print | Product List | Glossary On
Versions: 1 2 3 4 5 6 7 8 9 10 11 12 13 14 15 16 17 18 19 20 21 22 23 24 25 26 27 28 29 30 31 32 33 34 35 36 37 38 39 40 41 42 43 44 45 46 47 48 49 50
000
ASUS44 KBMX 261610
RWRAL

ALABAMA REGIONAL WEATHER ROUNDUP
NATIONAL WEATHER SERVICE BIRMINGHAM AL
1100 AM CDT MON SEP 26 2016

NOTE: "FAIR" INDICATES FEW OR NO CLOUDS BELOW 12,000 FEET
WITH NO SIGNIFICANT WEATHER AND/OR OBSTRUCTIONS TO VISIBILITY.

THE REMARK "TC" DENOTES TEMPERATURE IN DEGREES CELSIUS.

ALZ001>011-014-016>018-020-261700-
NORTH ALABAMA

CITY           SKY/WX    TMP DP  RH WIND       PRES   REMARKS
MUSCLE SHOALS  SUNNY     82  67  60 N9G16     30.09S
HUNTSVILLE     CLOUDY    84  66  54 NW12      30.07S
DECATUR        CLOUDY    79  68  69 NW7       30.08R
HALEYVILLE     FAIR      83  68  60 NW6       30.10R
GADSDEN        SUNNY     86  70  58 S6        30.07F HX  90
$$

ALZ012-013-022-023-030>036-040>044-261700-
WEST CENTRAL ALABAMA

CITY           SKY/WX    TMP DP  RH WIND       PRES   REMARKS
TUSCALOOSA     SUNNY     85  68  56 S7        30.03F
$$

ALZ015-024>027-033>036-040>044-261700-
CENTRAL ALABAMA

CITY           SKY/WX    TMP DP  RH WIND       PRES   REMARKS
BIRMINGHAM     MOSUNNY   87  66  49 CALM      30.07F
MONTGOMERY     SUNNY     86  67  52 E7        30.05F
SHELBY CO ARPT SUNNY     85  66  53 VRB3      30.07S
MAXWELL AFB    SUNNY     84  69  58 E6        30.04F
GREENVILLE     NOT AVBL
$$

ALZ019-021-028-029-037-038-045>048-261700-
EAST CENTRAL ALABAMA

CITY           SKY/WX    TMP DP  RH WIND       PRES   REMARKS
ANNISTON       SUNNY     87  64  46 N5        30.08S
ALEXANDER CITY MOSUNNY   84  74  73 SE5       30.08F HX  91
AUBURN         PTSUNNY   83  66  56 SW9       30.09F
$$

ALZ051>064-261700-
SOUTHWEST ALABAMA

CITY           SKY/WX    TMP DP  RH WIND       PRES   REMARKS
MOBILE         MOSUNNY   85  69  58 CALM      30.04S
BROOKLEY FIELD SUNNY     85  73  67 N6        30.03F HX  91
EVERGREEN      MOSUNNY   82  70  66 VRB5      30.05F
$$

ALZ049-050-065>069-261700-
SOUTHEAST ALABAMA

CITY           SKY/WX    TMP DP  RH WIND       PRES   REMARKS
DOTHAN         MOSUNNY   83  72  69 CALM      30.08F
OZARK          MOSUNNY   83  73  69 VRB2      30.05F
TROY           PTSUNNY   83  71  67 CALM      30.07S
EUFAULA        FAIR      88  69  53 MISG      30.04F HX  92
$$



USA.gov is the U.S. government's official web portal to all federal, state and local government web resources and services.